Flag for U.S.A. Weather past 2 weeks in New City, New York, U.S.A.

Now
43 °F

Clear.


Feels Like: 37 °F
Forecast: 36 / 47 °F
Wind: 12 mph from West

Location: Westchester County Airport

Current Time: Mar 30, 2015 at 11:21:34 PM

Latest Report: Mar 30, 2015 at 10:56 PM


Visibility: 10 mi

Pressure: 29.85 "Hg

Humidity: 58%

Dew point: 29 °F

Location of New CityLocation

Historic Weather in New City — Graph

°F

New City temperature yesterday

Maximum temperature yesterday: 43 °F (at 5:56 PM)
Minimum temperature yesterday: 23 °F (at 5:56 AM)
Average temperature yesterday: 32 °F

Past Weeks' High & Low Weather Summary

 TemperatureHumidityPressure
High54 °F (Mar 26, 7:56 PM)97% (Mar 25, 10:56 PM)30.42 "Hg (Mar 25, 10:56 PM)
Low20 °F (Mar 23, 5:56 AM)18% (Mar 19, 5:56 PM)29.54 "Hg (Mar 17, 10:56 AM)
Average34 °F58%30.03 "Hg
* Reported Mar 15 9:56 PM — Mar 30 9:56 PM, New City, Weather by CustomWeather, © 2015

Note: Actual official high and low records may vary slightly from our data, if they occured in-between our weather recording intervals... More about our weather records

Advertising

New City weather history for previous 24 hours

 ConditionsComfort  
Time TempWeatherWind HumidityBarometerVisibility
9:56 PM
Mon, Mar 30
44 °FClear.15 mph51%29.85 "Hg10 mi
8:56 PM45 °FClear.9 mph44%29.81 "Hg10 mi
7:56 PM46 °FScattered clouds.8 mph42%29.79 "Hg10 mi
6:56 PM48 °FScattered clouds.9 mph43%29.78 "Hg10 mi
5:56 PM48 °FPartly sunny.9 mph43%29.77 "Hg10 mi
4:56 PM48 °FBroken clouds.15 mph43%29.76 "Hg10 mi
3:56 PM49 °FBroken clouds.15 mph43%29.76 "Hg10 mi
2:56 PM50 °FPartly sunny.20 mph43%29.75 "Hg10 mi
1:56 PM48 °FPartly sunny.10 mph48%29.77 "Hg10 mi
12:56 PM45 °FScattered clouds.7 mph56%29.79 "Hg10 mi
11:56 AM40 °FPartly sunny.9 mph70%29.81 "Hg10 mi
10:56 AM37 °FPartly sunny.8 mph76%29.85 "Hg10 mi
9:56 AM36 °FPartly sunny.6 mph79%29.87 "Hg10 mi
8:56 AM33 °FPartly sunny.5 mph85%29.88 "Hg10 mi
7:56 AM32 °FLight snow. Ice fog.6 mph88%29.90 "Hg9 mi
6:56 AM32 °FLight snow. Ice fog.No wind82%29.94 "Hg1 mi
5:56 AM37 °FPassing clouds.7 mph39%29.96 "Hg10 mi
4:56 AM36 °FOvercast.3 mph38%29.97 "Hg10 mi
3:56 AM35 °FClear.3 mph40%30.00 "Hg10 mi
2:56 AM35 °FClear.3 mph38%30.03 "Hg10 mi
1:56 AM36 °FClear.3 mph37%30.06 "Hg10 mi
12:56 AM34 °FClear.No wind52%30.10 "Hg10 mi
11:56 PM
Sun, Mar 29
32 °FClear.No wind73%30.11 "Hg10 mi
Weather by CustomWeather, © 2015

See weather overviewHow to use our weather pages